Home   Weather   Hammerfest   Past weeks

Flag for Norway Past Weather in Hammerfest, Norway — Yesterday and Last 2 Weeks

Now
27 °F

Light mixture of precip. Passing clouds.


Feels Like: 15 °F
Forecast: 27 / 29 °F
Wind: 14 mph from North

Location: Hammerfest

Current Time: Jan 20, 2017 at 11:05:39 pm

Latest Report: Jan 20, 2017 at 10:20 pm


Visibility: N/A

Pressure: 29.50 "Hg

Humidity: 80%

Dew Point: 21 °F

Location of HammerfestLocation

Past Weather in Hammerfest — Graph

°F

Hammerfest Temperature Yesterday

Maximum temperature yesterday: 34 °F (at 12:20 am)
Minimum temperature yesterday: 21 °F (at 6:50 pm)
Average temperature yesterday: 27 °F

High & Low Weather Summary for the Past Weeks

 TemperatureHumidityPressure
High39 °F (Jan 17, 4:50 am)100% (Jan 9, 5:50 am)29.98 "Hg (Jan 9, 5:50 am)
Low16 °F (Jan 11, 2:50 pm)52% (Jan 14, 10:50 pm)28.82 "Hg (Jan 11, 11:50 am)
Average30 °F78%29.30 "Hg
* Reported Jan 5 9:20 pm — Jan 20 9:50 pm, Hammerfest, Weather by CustomWeather, © 2017

Note: Actual official high and low records may vary slightly from our data, if they occured in-between our weather recording intervals... More about our weather records

Advertising

Hammerfest Weather History for the Previous 24 Hours

Scroll right to see more
 ConditionsComfort  
Time TempWeatherWind HumidityBarometerVisibility
9:50 pm
Fri, Jan 20
27 °FLight mixture of precip. Passing clouds.16 mph80%29.47 "HgN/A
8:50 pm27 °FSnow flurries. Ice fog.12 mph80%29.47 "Hg1 mi
7:50 pm25 °FSnow flurries. Ice fog.22 mph86%29.45 "Hg2 mi
6:50 pm27 °FLight mixture of precip. Partly sunny.18 mph80%29.42 "HgN/A
5:50 pm27 °FLight mixture of precip. Scattered clouds.5 mph80%29.42 "HgN/A
4:50 pm28 °FLight mixture of precip. Partly sunny.14 mph74%29.39 "HgN/A
3:50 pm28 °FScattered clouds.7 mph69%29.36 "HgN/A
2:50 pm27 °FLight mixture of precip. Broken clouds.18 mph69%29.36 "HgN/A
2:20 pm27 °FLight mixture of precip. Broken clouds.18 mph74%29.33 "HgN/A
1:50 pm25 °FBroken clouds.23 mph86%29.33 "HgN/A
12:50 pm25 °FHeavy snow. Ice fog.9 mph86%29.33 "Hg0 mi
12:20 pm25 °FHeavy snow. Ice fog.22 mph86%29.33 "Hg0 mi
11:50 am27 °FHeavy snow. Ice fog.16 mph69%29.33 "Hg0 mi
11:20 am27 °FLight mixture of precip. Scattered clouds.20 mph59%29.30 "HgN/A
10:50 am25 °FLight mixture of precip. Scattered clouds.23 mph80%29.30 "HgN/A
9:50 am23 °FBroken clouds.6 mph93%29.27 "HgN/A
9:20 am23 °FSnow flurries. Broken clouds.17 mph93%29.27 "Hg6 mi
8:55 am25 °FSnow showers. Partly sunny.17 mph74%29.24 "Hg3 mi
8:20 am25 °FSnow flurries. Partly sunny.12 mph80%29.24 "Hg4 mi
7:50 am25 °FMixture of precip. Ice fog.25 mph86%29.21 "Hg1 mi
6:50 am25 °FLight snow. Broken clouds.12 mph86%29.24 "Hg1 mi
5:50 am23 °FPartly cloudy.21 mph93%29.21 "HgN/A
4:50 am25 °FLight snow. Partly cloudy.20 mph80%29.24 "Hg1 mi
3:50 am25 °FSnow. Partly cloudy.23 mph86%29.24 "Hg0 mi
2:50 am25 °FSnow flurries. Partly cloudy.21 mph80%29.24 "Hg1 mi
1:50 am23 °FSnow flurries. Passing clouds.21 mph80%29.27 "Hg2 mi
12:50 am23 °FSnow flurries. Partly sunny.24 mph93%29.30 "Hg1 mi
11:50 pm
Thu, Jan 19
25 °FLight mixture of precip. Passing clouds.21 mph80%29.30 "Hg6 mi
11:20 pm25 °FLight mixture of precip. Partly cloudy.21 mph80%29.30 "Hg4 mi
Weather by CustomWeather, © 2017

See weather overviewHow to use our weather pages